Lapse_Rate
6.9 6.9 6.7 6.6 6.6 6.6 6.5 6.5 6.8 6.6 6.7 7.2 7.5 8.0 8.2 8.5 8.6 8.8 9.1 8.9 8.8 8.9 8.8 8.4 8.4 8.4 7.3 7.4 6.6 6.9 7.4 7.3 6.8 7.2 7.1 6.3 5.7 5.9 6.0 6.3 6.4 6.4 6.3 6.2 6.3 6.4 6.5 6.2 6.1
7.0 7.0 6.6 6.6 6.6 6.6 6.6 6.8 7.0 6.8 7.1 7.3 7.7 8.1 8.4 8.4 8.4 8.5 8.9 8.9 8.7 8.7 8.6 8.4 8.2 8.0 7.4 7.4 7.2 7.1 7.2 7.1 7.0 6.4 6.6 7.2 5.5 5.9 6.0 6.5 6.4 6.3 6.2 6.4 6.5 6.5 6.5 6.3 6.1
7.1 6.9 6.7 6.8 6.7 6.6 6.9 7.0 7.2 7.0 7.3 7.6 8.0 8.3 8.2 8.4 8.5 8.5 8.4 8.4 8.4 8.1 7.8 7.9 7.8 7.5 7.5 7.4 6.8 6.8 6.9 6.8 6.5 6.1 6.4 7.0 5.9 6.0 6.1 6.1 6.2 6.2 6.4 6.3 6.6 6.7 6.5 6.4 6.2
7.0 7.0 6.9 6.9 6.8 6.7 7.0 7.1 7.0 7.1 7.3 7.5 7.7 8.0 8.0 8.1 8.2 8.2 8.3 8.3 8.2 8.1 8.0 7.4 7.2 7.0 7.0 6.9 6.7 6.9 6.7 6.6 6.4 6.7 6.5 6.9 6.3 6.4 5.8 5.9 6.0 6.1 6.2 6.4 6.6 6.5 6.5 6.4 6.6
7.0 7.0 7.0 7.0 6.9 6.9 7.0 7.1 7.1 7.5 7.7 7.6 7.7 7.8 7.8 7.8 7.8 7.8 8.0 8.0 8.1 8.0 7.8 7.2 7.2 7.4 6.9 6.8 7.0 6.2 6.1 6.3 6.4 6.4 6.5 6.6 6.5 6.4 6.0 5.7 5.9 5.9 6.3 6.5 6.5 6.4 6.5 6.2 6.4
7.0 6.9 6.9 7.0 7.0 6.9 7.0 7.2 7.5 7.8 7.8 7.6 7.6 7.6 7.6 7.5 7.6 7.7 7.6 7.5 7.5 7.8 7.8 7.5 7.1 7.4 6.6 6.6 6.7 6.2 6.2 6.1 6.2 6.2 6.2 6.6 6.5 6.4 6.0 5.5 5.8 6.1 6.5 6.4 6.5 6.0 6.2 6.2 6.2
7.0 6.8 7.0 7.0 7.0 6.8 7.0 7.4 7.6 7.8 7.9 7.6 7.4 7.3 7.4 7.4 7.3 7.4 7.4 7.3 7.2 7.1 7.2 7.1 6.9 7.2 6.7 6.9 6.5 6.4 6.4 6.1 5.8 5.7 6.2 6.3 6.4 6.2 5.6 5.3 5.7 6.1 6.2 6.3 6.1 6.2 6.1 6.1 6.2
6.9 6.7 6.9 7.0 6.9 6.9 7.1 7.6 7.8 7.8 7.9 7.5 7.2 6.9 6.8 7.1 7.2 7.3 7.5 7.4 7.3 7.2 6.9 7.0 6.7 6.4 6.3 6.2 6.2 6.2 6.2 5.7 5.3 5.2 6.0 6.1 6.5 6.3 5.3 5.4 5.6 6.0 6.1 6.0 5.9 6.0 6.1 6.0 6.1
6.7 6.7 7.0 7.1 6.9 6.9 7.3 7.6 7.9 7.8 7.8 7.5 7.1 6.7 6.7 6.8 7.1 7.4 7.4 7.4 6.9 6.9 6.7 6.4 6.7 6.5 6.4 6.1 5.9 5.9 6.0 5.7 5.6 4.9 5.6 5.8 6.1 6.0 5.5 5.4 5.7 5.6 5.9 5.8 5.8 6.0 6.0 6.0 6.2
6.8 7.0 7.1 7.0 6.8 6.9 7.2 7.3 7.7 7.9 7.9 7.7 7.2 6.8 6.7 6.6 7.0 7.2 7.1 7.0 6.6 5.9 6.2 6.0 6.2 6.0 5.7 5.7 5.7 5.7 5.5 5.3 5.3 4.8 5.0 5.3 5.7 6.0 5.9 5.5 5.7 5.5 5.8 5.6 5.6 5.8 5.9 5.9 6.2
6.9 7.3 7.2 7.1 6.9 6.9 7.1 7.3 7.6 8.0 7.8 7.5 7.1 6.9 6.8 6.8 6.8 6.8 6.5 6.3 6.1 6.0 5.8 4.9 5.3 5.3 5.5 5.3 5.5 5.3 5.1 4.6 5.2 4.9 4.6 4.5 5.3 5.5 5.7 5.6 5.6 5.6 5.6 5.7 5.7 5.8 5.8 5.8 6.1
6.9 7.3 7.2 7.2 7.2 7.0 7.1 7.3 7.5 8.0 7.6 7.1 7.0 6.8 6.9 6.9 6.8 6.4 5.6 5.5 5.8 5.7 5.5 5.4 5.4 5.2 4.8 5.5 4.9 4.9 5.2 5.2 5.0 4.5 4.4 4.5 4.9 5.2 5.7 5.8 5.5 5.5 5.5 5.7 5.7 5.9 5.9 5.9 6.0
6.9 7.3 7.2 7.3 7.3 7.2 7.1 7.3 7.7 8.2 7.8 7.4 7.1 7.0 6.9 6.8 6.9 6.4 5.2 5.5 5.6 5.8 5.5 5.0 4.8 4.9 5.4 5.1 5.0 4.9 5.2 5.2 5.2 4.7 4.2 4.8 4.9 5.3 5.3 5.3 5.5 5.4 5.6 5.5 5.4 5.9 5.7 6.0 6.2
7.0 7.2 7.2 7.2 7.3 7.3 7.2 7.5 7.9 8.1 7.6 7.5 7.3 7.2 7.1 7.0 6.9 6.8 5.9 5.9 5.8 5.9 5.7 5.2 5.0 4.9 5.4 5.4 5.2 5.4 5.2 5.0 4.6 5.0 4.7 4.9 5.0 4.9 4.6 5.3 5.3 5.4 5.5 5.5 5.8 5.9 5.7 5.7 6.0
7.0 7.0 6.9 7.4 7.2 7.2 7.2 7.7 8.0 7.9 8.0 7.7 7.2 7.2 7.0 7.3 7.1 7.2 6.7 5.9 5.3 5.7 5.7 5.2 5.2 5.5 5.4 5.6 5.5 5.3 5.3 5.0 4.9 4.7 4.5 4.2 4.3 4.4 4.8 5.1 5.1 5.2 5.5 6.0 6.0 5.5 5.6 5.7 6.0
7.1 6.8 6.8 7.4 7.0 7.2 7.1 8.1 8.1 8.0 7.8 7.8 7.4 7.1 7.3 7.2 7.4 7.3 6.9 6.4 6.1 5.5 5.8 5.4 5.7 5.8 5.7 5.5 5.0 5.5 5.2 5.1 5.0 4.9 4.3 4.2 4.3 4.6 4.8 5.0 4.9 5.3 5.0 5.9 5.7 5.4 5.6 5.8 6.3
6.9 6.9 6.9 7.1 7.1 7.2 7.3 8.1 8.2 8.2 7.9 7.9 7.5 7.4 7.4 7.2 7.3 7.3 7.0 6.8 6.2 5.5 5.5 5.7 5.7 5.5 5.7 5.5 5.5 5.6 5.3 5.2 5.4 5.2 4.8 4.1 4.4 4.6 4.8 4.9 4.9 5.1 5.3 5.8 5.8 5.5 5.7 5.9 6.4
7.2 6.8 6.7 6.9 6.9 7.1 7.4 7.9 8.1 8.4 8.3 8.1 7.8 7.6 7.5 7.4 7.2 7.5 7.2 6.8 6.3 5.1 5.2 5.5 5.9 6.0 5.6 5.8 5.3 5.3 5.3 5.0 4.9 5.0 5.0 4.6 4.7 4.6 4.5 4.8 4.9 4.8 4.8 5.4 5.8 5.8 5.9 6.1 6.4
6.9 6.8 6.7 7.1 6.9 6.8 7.3 7.7 8.2 8.4 8.5 8.3 7.9 7.6 7.5 7.5 7.3 7.5 7.3 6.9 6.6 5.2 5.4 5.7 5.5 5.5 5.8 5.7 5.6 5.4 5.2 5.3 4.9 5.1 5.0 4.6 4.7 4.6 4.5 4.6 4.8 4.8 4.7 5.3 5.9 5.9 6.2 6.3 6.6
6.9 6.6 6.7 7.3 7.3 6.8 7.1 7.6 8.4 8.6 8.7 8.4 8.1 7.7 7.7 7.5 7.5 7.5 7.4 7.1 6.8 6.2 5.6 5.8 5.9 5.7 5.8 5.8 5.3 5.5 5.2 5.2 4.8 5.1 5.0 4.6 4.7 4.6 4.7 4.5 4.7 4.6 4.9 5.5 5.9 6.0 6.2 6.2 6.4
6.7 6.6 7.1 7.3 7.4 6.9 6.7 7.2 8.1 8.4 8.7 8.5 8.2 8.0 7.9 7.7 7.6 7.6 7.5 7.2 6.9 7.0 6.5 6.5 5.9 5.9 5.7 5.8 5.8 5.7 5.4 5.1 5.2 4.8 4.8 4.9 4.7 4.7 4.6 4.7 4.6 4.8 5.4 5.4 5.8 6.3 6.3 6.2 6.1
6.4 7.4 7.2 6.8 6.8 6.9 6.7 6.5 7.7 8.0 8.1 8.3 8.2 8.1 7.8 7.8 7.8 7.7 7.6 7.5 7.2 7.0 7.0 6.8 6.4 5.9 5.7 5.6 5.5 5.3 5.6 5.7 5.5 5.2 4.8 4.5 4.6 4.7 4.6 4.6 4.8 5.2 5.4 5.7 5.8 5.9 6.1 5.9 6.0
6.7 7.5 7.1 6.8 6.4 6.0 6.7 6.6 7.4 7.6 7.8 8.2 8.0 8.1 7.9 7.8 8.0 7.9 7.8 7.6 7.4 7.4 7.1 7.1 6.8 6.4 5.7 5.8 5.7 5.6 5.5 5.3 5.2 5.0 4.9 5.0 4.8 4.7 4.7 4.7 5.0 5.4 5.5 5.8 5.5 5.6 5.8 5.9 6.1
6.7 7.0 6.7 6.3 6.3 5.8 6.8 7.0 7.8 7.6 7.9 8.0 7.8 8.2 8.0 7.7 7.9 8.0 8.0 7.8 7.5 7.4 7.4 7.2 7.1 7.0 6.9 6.3 5.6 5.3 5.3 5.3 5.2 5.3 5.1 4.6 4.7 4.8 4.6 4.6 5.1 5.3 5.3 5.3 5.4 5.6 5.7 5.8 6.0
6.3 6.7 6.6 6.3 6.0 6.4 7.3 7.0 7.6 8.1 8.0 7.8 7.9 8.1 8.2 7.9 7.7 7.9 8.1 7.9 7.7 7.6 7.5 7.4 7.2 7.1 7.1 7.0 6.5 6.2 5.5 5.2 5.2 5.1 5.0 4.9 5.0 5.0 4.8 5.1 5.4 5.4 5.3 5.5 5.4 5.3 5.6 6.0 6.1
6.8 6.6 6.9 6.8 6.7 7.3 7.1 6.5 7.4 8.0 8.0 8.0 8.0 8.3 8.3 8.2 8.0 8.1 8.1 8.0 7.9 7.8 7.6 7.5 7.4 7.2 7.2 7.1 7.1 7.1 6.9 6.7 6.1 5.7 5.4 5.3 5.3 5.2 5.2 5.0 5.3 5.4 5.9 5.9 5.5 5.5 6.0 6.2 5.8
6.6 6.0 7.1 7.2 6.5 6.3 6.4 6.7 7.4 7.7 8.2 8.0 8.3 8.4 8.6 8.4 8.1 8.2 8.1 8.1 7.9 7.9 7.7 7.6 7.5 7.5 7.3 7.2 7.3 7.3 7.2 7.2 7.1 6.9 6.8 6.6 6.2 6.1 6.0 6.2 6.5 6.7 6.4 6.1 5.9 6.0 6.4 6.2 5.9
6.8 7.4 7.0 6.8 6.8 6.4 6.3 6.3 7.2 8.1 8.2 7.9 8.4 8.5 8.6 8.4 8.3 8.2 8.3 8.1 8.0 7.9 7.8 7.7 7.7 7.7 7.6 7.5 7.5 7.5 7.4 7.3 7.2 7.2 7.1 7.1 7.1 7.0 6.8 6.7 6.6 6.5 6.2 5.9 5.8 6.1 6.3 6.2 6.1
6.9 6.7 7.0 7.0 6.9 7.0 6.9 6.7 7.6 8.1 7.7 8.0 8.3 8.5 8.6 8.5 8.5 8.3 8.3 8.2 8.1 8.0 7.9 7.9 7.9 7.9 7.9 7.8 7.7 7.6 7.6 7.5 7.5 7.5 7.4 7.2 7.1 6.9 6.9 6.7 6.6 6.6 6.5 6.3 6.1 6.2 5.9 6.1 6.1
7.0 7.3 7.4 7.6 6.8 7.0 6.9 6.9 7.5 8.3 8.2 8.1 8.1 8.3 8.6 8.6 8.6 8.4 8.3 8.4 8.2 8.2 8.2 8.0 7.8 7.8 7.9 8.0 7.9 7.7 7.6 7.6 7.8 7.6 7.4 7.4 7.0 7.0 7.0 6.8 6.8 6.6 6.3 6.2 6.0 5.9 6.0 5.9 5.8
Wind_Speed
4 4 2 2 2 1 1 3 2 3 2 3 4 5 4 4 5 5 4 3 8 13 17 19 17 18 23 30 29 29 30 29 28 27 38 30 26 27 29 29 28 28 28 28 28 27 26 26 26
5 3 2 2 1 0 1 3 7 7 4 3 3 4 5 4 4 2 2 4 15 15 18 20 21 21 24 28 27 30 31 33 31 30 30 32 28 28 29 29 29 30 28 30 28 26 26 26 25
5 3 0 3 2 2 3 5 8 4 9 6 3 4 2 3 1 3 3 6 8 15 18 18 24 22 26 30 34 30 32 34 33 31 30 32 30 28 28 28 29 30 30 30 29 27 26 25 24
2 2 3 1 3 4 4 7 5 8 1 4 1 5 3 2 2 2 2 7 5 10 15 20 22 19 23 31 27 28 30 31 30 33 32 33 30 30 27 27 27 29 26 28 27 26 26 24 25
3 2 2 1 3 4 5 7 5 6 2 3 2 3 3 1 1 2 3 6 8 11 16 17 8 26 22 26 26 26 28 30 29 30 32 31 30 30 27 25 25 25 25 26 27 25 26 24 25
3 1 2 3 4 4 6 6 1 5 4 1 3 3 2 1 2 5 4 6 6 9 12 14 13 16 14 23 29 25 26 29 33 30 32 32 31 29 26 24 24 25 25 27 27 25 25 24 24
3 2 2 2 3 4 4 3 3 4 3 4 1 3 3 3 4 6 7 4 6 8 7 14 17 17 19 21 28 33 30 28 31 30 29 35 32 29 25 22 21 24 27 27 27 26 24 24 24
4 2 4 4 3 4 4 3 1 4 4 3 2 4 4 1 7 5 3 3 5 7 9 11 14 17 17 19 20 27 34 29 29 31 26 29 33 29 24 20 20 24 28 27 27 26 25 24 22
3 2 4 5 6 5 4 5 2 1 3 3 5 4 3 5 4 1 1 1 2 5 12 10 10 16 20 20 18 19 19 25 28 29 26 26 26 28 26 20 22 26 27 27 25 24 25 23 22
4 4 8 7 5 6 9 7 6 3 4 5 3 5 4 3 4 3 2 1 2 2 8 8 11 12 18 17 17 15 14 16 23 24 24 20 23 24 24 23 23 24 26 26 26 24 25 22 19
6 7 6 5 12 7 6 4 4 4 8 7 5 4 4 3 3 4 2 1 2 3 1 13 6 14 10 13 15 15 11 14 21 25 24 21 20 21 20 19 20 21 23 21 22 23 18 17 17
4 9 7 4 4 2 4 1 4 9 2 4 6 2 4 2 1 3 3 4 2 4 8 6 15 14 14 15 13 14 11 12 9 18 25 21 16 16 17 16 16 17 17 20 19 16 16 15 15
6 9 5 10 7 6 3 8 5 9 7 8 8 4 5 3 1 2 1 3 3 6 10 11 12 12 10 12 14 9 10 10 12 20 21 21 18 13 17 16 15 14 16 18 16 17 16 14 15
6 7 9 7 9 3 5 2 2 1 12 10 8 7 6 5 4 4 3 3 5 7 4 9 8 7 13 11 12 10 11 14 11 15 19 21 19 17 15 17 15 14 15 15 17 16 15 13 13
1 6 7 8 4 4 6 6 9 3 11 11 9 8 6 6 5 5 2 4 5 7 8 8 8 8 9 11 10 8 11 20 13 16 19 21 21 19 18 16 15 14 15 15 13 12 13 11 10
3 1 5 1 5 1 6 13 3 4 13 12 11 9 7 6 6 4 4 4 7 8 10 10 9 10 10 8 7 9 11 15 14 11 15 16 19 20 17 13 12 14 16 14 12 11 8 7 7
0 6 6 6 4 3 5 8 0 4 10 11 12 10 8 7 7 5 5 4 6 8 11 9 12 13 12 9 5 8 9 11 13 13 10 14 16 18 16 14 11 13 12 11 10 7 7 6 6
8 5 4 5 1 2 4 15 16 7 11 12 12 12 10 10 10 6 6 4 5 8 8 10 10 13 12 7 6 5 4 7 12 15 15 18 15 16 14 12 13 11 10 7 7 7 6 6 6
7 5 4 5 5 3 6 13 18 7 10 12 12 12 12 12 9 8 7 7 6 8 10 11 10 10 10 8 8 5 6 8 8 14 18 19 17 15 13 11 12 13 8 9 7 5 8 4 6
6 6 9 10 2 8 10 14 15 5 5 10 13 13 13 11 11 11 10 8 8 8 9 11 11 12 10 10 8 8 8 6 6 10 15 19 18 16 15 14 10 11 6 8 10 8 4 5 7
11 13 7 10 6 3 5 5 6 2 3 5 10 10 12 15 14 13 12 12 11 12 11 11 12 11 8 12 7 5 4 3 5 7 7 9 17 18 14 13 7 9 9 7 9 9 9 6 5
15 12 8 7 4 4 3 7 6 7 7 7 10 13 13 16 15 15 15 15 13 13 13 14 12 13 9 12 12 15 11 10 7 8 9 9 16 18 18 14 10 13 10 7 8 6 9 5 7
11 9 11 7 6 3 2 4 4 2 7 10 10 15 17 17 19 18 18 16 15 13 13 12 13 15 11 12 14 9 9 8 3 5 10 10 10 16 15 12 6 13 3 6 7 8 10 8 5
8 5 4 3 2 5 7 5 5 3 6 4 6 8 14 16 18 17 16 15 14 13 13 13 15 15 13 12 13 12 9 7 7 5 7 6 5 4 8 13 14 15 11 9 9 9 11 10 9
5 8 3 4 5 5 3 6 13 9 13 10 12 11 10 16 16 17 19 19 17 18 18 15 17 16 16 14 14 13 14 10 10 8 7 9 7 6 8 10 11 8 11 13 13 10 11 11 9
18 13 6 8 6 4 2 6 5 9 7 8 10 11 7 15 17 19 20 20 20 21 20 19 19 18 18 18 19 18 18 11 11 11 9 8 9 10 10 11 12 12 14 14 13 9 9 10 8
6 10 6 5 2 1 4 5 8 8 9 3 8 4 6 13 16 19 19 19 18 20 22 21 20 20 20 19 17 18 16 18 15 16 12 10 10 8 10 11 12 13 12 12 11 8 9 10 9
5 9 5 0 7 8 3 4 6 7 10 8 9 5 5 7 12 14 17 19 18 18 19 21 21 22 22 21 18 16 18 18 17 15 17 16 14 14 14 14 14 13 11 10 9 9 11 11 8
7 8 2 4 3 8 6 5 7 11 8 7 7 9 4 8 12 14 15 15 16 16 18 19 21 21 20 20 19 19 18 18 16 16 16 16 15 15 16 15 15 15 13 9 9 10 9 12 11
4 8 10 5 5 1 1 8 3 9 7 6 10 7 6 5 8 12 13 15 16 18 18 19 18 19 19 18 19 19 18 17 17 19 20 17 17 16 16 16 15 11 11 11 11 12 10 12 11
Wind_Direction
135 123 105 53 207 13 230 234 283 249 259 207 285 230 258 284 256 281 325 264 165 168 168 157 139 137 137 133 145 144 140 137 135 136 130 131 130 131 128 128 126 124 124 120 118 119 117 116 108
138 111 71 94 131 118 245 230 233 236 259 289 203 230 242 249 204 223 182 231 162 158 162 158 149 146 141 137 142 143 144 139 138 134 130 130 133 133 131 131 131 126 125 124 123 122 121 114 109
126 55 149 89 116 227 237 219 255 265 265 238 220 234 223 237 159 168 160 187 180 161 161 170 153 153 146 143 147 154 147 140 139 135 136 132 136 134 134 133 132 131 132 124 125 123 121 119 115
125 92 87 213 235 237 230 273 253 302 232 216 278 256 262 338 159 130 33 136 147 162 175 156 155 147 151 143 155 149 145 138 140 138 138 135 137 135 135 137 142 139 140 126 129 128 123 119 115
53 84 119 230 262 265 252 278 268 263 248 183 175 256 249 195 253 275 132 170 178 162 175 160 147 147 181 151 149 146 139 139 138 137 136 137 137 135 138 143 137 136 132 136 129 125 121 120 118
94 100 180 222 243 263 270 243 242 249 280 324 227 247 262 339 291 335 300 192 184 183 179 176 165 151 175 160 154 147 144 144 142 144 140 138 138 134 139 140 137 133 133 129 130 127 124 126 121
132 157 224 221 262 282 245 162 214 234 232 254 7 266 298 281 334 320 298 246 185 219 184 194 182 166 168 180 171 161 152 147 142 141 145 137 138 136 139 137 135 138 136 133 131 129 130 126 122
121 156 166 217 221 265 243 207 215 225 269 106 140 246 259 283 329 331 27 244 170 180 202 203 193 175 160 154 145 158 153 148 141 135 138 133 136 135 133 134 136 141 140 134 135 134 131 125 123
135 177 217 212 187 257 231 285 169 111 217 196 189 225 306 306 286 296 325 139 152 172 185 201 178 167 160 148 140 127 137 142 135 126 128 127 135 137 141 140 137 141 137 136 138 136 129 126 124
179 210 217 202 204 260 291 273 269 210 204 231 234 230 252 293 306 263 265 308 304 161 177 169 178 160 151 143 135 124 146 153 143 135 135 135 135 136 143 140 130 138 142 144 141 134 130 133 132
173 233 201 233 232 253 277 266 211 213 242 228 209 228 221 291 345 311 254 336 356 87 65 172 119 123 130 125 127 132 142 166 170 147 133 133 135 134 139 140 136 141 141 148 141 139 144 143 140
199 249 220 261 214 209 251 215 233 213 256 114 150 154 190 249 324 353 344 130 180 114 118 114 132 130 130 140 151 152 166 167 172 134 135 143 141 143 142 145 145 143 148 148 153 150 149 141 140
211 252 206 245 249 244 195 243 259 238 177 130 125 142 188 194 274 276 133 134 162 153 144 142 149 157 154 155 150 154 178 163 152 152 143 148 145 144 149 146 150 144 148 148 148 153 147 146 148
202 241 253 279 271 237 223 251 217 338 151 138 145 192 192 182 206 250 217 137 133 137 134 143 145 124 146 146 150 164 155 149 168 161 150 150 149 152 151 149 153 149 150 149 155 151 153 156 149
193 275 301 259 262 230 191 244 232 194 157 155 176 211 200 200 189 238 213 159 129 121 129 137 126 137 137 143 137 126 133 154 178 164 154 159 156 155 157 157 163 161 146 149 149 146 147 144 151
164 136 262 200 168 284 218 276 248 160 168 178 185 199 219 205 198 220 199 191 153 132 141 145 137 139 136 130 119 124 132 149 176 150 162 164 162 155 160 156 167 172 139 153 152 159 153 150 159
136 238 230 303 203 146 225 283 90 167 190 192 192 191 206 226 218 211 230 184 166 141 143 137 146 145 146 141 122 116 131 141 163 180 165 170 166 162 163 167 166 172 140 154 167 169 149 156 171
191 201 230 242 100 177 255 271 283 221 211 210 198 191 199 216 216 207 203 179 148 139 136 135 150 153 153 135 145 112 123 149 161 178 196 179 164 163 164 170 164 166 160 160 178 175 165 172 173
148 170 207 241 230 267 252 270 289 232 219 222 213 202 202 208 205 193 194 173 158 145 145 149 138 147 157 152 155 155 169 202 184 177 181 171 162 167 171 177 167 183 180 170 172 179 191 165 166
186 211 255 294 259 215 279 289 298 213 232 224 223 210 201 197 187 186 186 178 177 167 158 158 160 160 161 168 172 168 167 190 170 183 165 166 159 169 185 183 188 175 205 164 192 193 181 188 175
214 212 224 247 333 257 280 271 311 299 248 237 230 224 200 191 188 185 185 192 184 183 176 173 168 158 158 161 133 119 116 113 154 172 167 147 168 176 181 194 169 195 213 183 199 204 202 194 188
221 207 210 242 308 277 357 294 285 290 287 249 239 212 204 192 191 186 190 194 192 190 184 179 177 171 167 159 161 175 176 172 184 171 170 168 176 172 173 168 168 204 199 203 204 199 223 192 193
236 165 198 224 234 299 281 254 266 249 272 271 244 220 204 196 189 188 190 193 193 195 188 179 175 181 174 176 180 180 182 189 149 152 169 177 193 187 166 157 222 248 201 244 217 204 215 217 204
183 135 88 81 158 236 235 215 280 221 230 261 265 229 210 197 193 191 187 184 191 191 191 183 180 187 179 185 187 193 185 167 179 166 181 190 196 174 169 167 201 219 205 220 226 223 218 217 213
188 142 167 210 203 241 179 196 253 264 256 249 278 285 209 194 189 188 184 185 188 191 189 188 187 188 185 188 194 198 203 191 198 193 195 195 202 203 201 192 207 215 218 227 232 227 224 216 211
196 193 174 209 209 224 151 233 241 244 274 277 273 272 224 192 191 190 193 190 186 188 188 188 189 192 193 195 200 204 209 205 208 207 210 215 215 210 205 207 215 219 223 226 229 229 229 222 208
170 202 193 102 53 165 202 273 277 280 295 316 306 299 230 196 195 193 192 195 194 188 189 190 190 194 197 199 199 205 208 212 210 215 217 219 224 223 220 216 221 222 224 228 229 234 239 224 217
177 160 183 126 219 238 202 251 226 295 295 317 340 305 256 215 201 200 198 197 195 195 192 191 194 194 194 198 203 206 209 214 215 215 218 222 224 223 223 226 226 228 230 235 236 243 240 229 220
184 206 183 165 191 231 251 246 213 236 256 271 305 308 240 219 208 202 203 204 199 194 194 197 197 196 198 198 199 205 208 211 213 218 220 221 221 221 227 229 231 234 234 232 231 234 231 223 226
224 217 201 211 188 192 226 236 209 240 255 241 282 296 293 253 218 203 201 195 198 199 197 199 200 203 198 196 201 206 207 209 215 220 221 218 220 216 216 222 232 225 218 215 217 233 221 216 209